Location: Karcze
(52.0945°N, 22.4786°E)
Time: 01:19:30
(UTC+00:00)

Transit 2A Rocket - Pass Details

Date: 03 August 2021
Orbit: 586 x 917 km, 66.7° (Epoch: 27 September)

Event Time Altitude Azimuth Distance (km) Brightness Sun altitude
Rises 19:21:18 0° 321° (NW) 3,196 10.5 -8.8°
Reaches altitude 10° 19:23:40 10° 326° (NNW) 2,321 9.0 -9.0°
Maximum altitude 19:28:54 52° 43° (NE) 1,023 5.7 -9.6°
Enters shadow 19:34:15 12° 118° (ESE) 2,397 7.0 -10.2°
Drops below altitude 10° 19:34:35 10° 119° (ESE) 2,512 - -10.2°
Sets 19:37:13 0° 125° (SE) 3,483 - -10.5°
